,,Stat1,,Stat2,,Stat3,,Stat4,,Wind1,,Wind1,
time,status,PR1M_SUM,status,RH1M_AVG,status,SR1M_AVG,status,TA1M_AVG,status,W1dAve1m,status,W1sAve1m,
1999-10-11, 00:01:00,VALID,0,VALID,99.8337,VALID,-0.0679233,VALID,19.4476,VALID,211,VALID,0,
1999-10-11, 00:02:00,VALID,0,VALID,99.8159,VALID,-0.0339617,VALID,19.4245,VALID,210,VALID,0,
1999-10-11, 00:03:00,VALID,0,VALID,99.8057,VALID,-0.0169808,VALID,19.4113,VALID,209,VALID,0,
1999-10-11, 00:04:00,VALID,0,VALID,99.807,VALID,-0.0339617,VALID,19.3989,VALID,209,VALID,0,
1999-10-11, 00:05:00,VALID,0,VALID,99.8146,VALID,-0.0339617,VALID,19.3892,VALID,209,VALID,0,
1999-10-11, 00:06:00,VALID,0,VALID,99.8082,VALID,-0.0509425,VALID,19.3795,VALID,209,VALID,0,
1999-10-11, 00:07:00,VALID,0,VALID,99.8235,VALID,-0.0169808,VALID,19.37,VALID,209,VALID,0,
1999-10-11, 00:08:00,VALID,0,VALID,99.8159,VALID,-0.0339617,VALID,19.3728,VALID,209,VALID,0,
1999-10-11, 00:09:00,VALID,0,VALID,99.8337,VALID,-0.0169808,VALID,19.3795,VALID,209,VALID,0,
1999-10-11, 00:10:00,VALID,0,VALID,99.8451,VALID,-0.0169808,VALID,19.3825,VALID,209,VALID,0,
1999-10-11, 00:11:00,VALID,0,VALID,99.8451,VALID,-0.0339617,VALID,19.3825,VALID,209,VALID,0,
1999-10-11, 00:12:00,VALID,0,VALID,99.826,VALID,0.0169808,VALID,19.3695,VALID,209,VALID,0,
1999-10-11, 00:13:00,VALID,0,VALID,99.8108,VALID,0.0679233,VALID,19.3484,VALID,209,VALID,0,
1999-10-11, 00:14:00,VALID,0,VALID,99.8248,VALID,0.0679233,VALID,19.3424,VALID,209,VALID,0,
1999-10-11, 00:15:01,VALID,0,VALID,99.84,VALID,0.0509425,VALID,19.3556,VALID,209,VALID,0,
1999-10-11, 00:16:00,VALID,0,VALID,99.8197,VALID,0.0679233,VALID,19.3362,VALID,210,VALID,0,
1999-10-11, 00:17:00,VALID,0,VALID,99.8235,VALID,0.101885,VALID,19.3166,VALID,217,VALID,0,
1999-10-11, 00:18:00,VALID,0,VALID,99.8184,VALID,0.0849042,VALID,19.2934,VALID,219,VALID,0,
1999-10-11, 00:19:00,VALID,0,VALID,99.8057,VALID,0.101885,VALID,19.284,VALID,219,VALID,0,
1999-10-11, 00:20:00,VALID,0,VALID,99.8197,VALID,0.0849042,VALID,19.2778,VALID,219,VALID,0,
1999-10-11, 00:21:00,VALID,0,VALID,99.8032,VALID,0.101885,VALID,19.271,VALID,219,VALID,0,
1999-10-11, 00:22:00,VALID,0,VALID,99.793,VALID,0.0849042,VALID,19.2514,VALID,219,VALID,0,
1999-10-11, 00:23:00,VALID,0,VALID,99.8057,VALID,0.101885,VALID,19.2357,VALID,227,VALID,0,
1999-10-11, 00:24:00,VALID,0,VALID,99.8502,VALID,0.101885,VALID,19.2613,VALID,232,VALID,0,
1999-10-11, 00:25:00,VALID,0,VALID,99.8731,VALID,0.0679233,VALID,19.2912,VALID,233,VALID,0,
1999-10-11, 00:26:01,VALID,0,VALID,99.8947,VALID,0.0849042,VALID,19.3004,VALID,233,VALID,0,
1999-10-11, 00:27:00,VALID,0,VALID,99.9023,VALID,0.0849042,VALID,19.2972,VALID,233,VALID,0,
1999-10-11, 00:28:00,VALID,0,VALID,99.8833,VALID,0,VALID,19.2887,VALID,233,VALID,0,
1999-10-11, 00:29:00,VALID,0,VALID,99.8896,VALID,0,VALID,19.3023,VALID,233,VALID,0,
1999-10-11, 00:30:00,VALID,0,VALID,99.8807,VALID,0.0169808,VALID,19.2951,VALID,233,VALID,0,
1999-10-11, 00:31:00,VALID,0,VALID,99.8642,VALID,0.0169808,VALID,19.2827,VALID,233,VALID,0,
1999-10-11, 00:32:00,VALID,0,VALID,99.8362,VALID,0,VALID,19.2628,VALID,233,VALID,0,
1999-10-11, 00:33:00,VALID,0,VALID,99.7485,VALID,0,VALID,19.218,VALID,233,VALID,0,
1999-10-11, 00:34:00,VALID,0,VALID,99.7243,VALID,0.0169808,VALID,19.1822,VALID,231,VALID,0,
1999-10-11, 00:35:00,VALID,0,VALID,99.6989,VALID,0,VALID,19.1337,VALID,226,VALID,0,
1999-10-11, 00:36:00,VALID,0,VALID,99.6862,VALID,0,VALID,19.0852,VALID,226,VALID,0,
1999-10-11, 00:37:01,VALID,0,VALID,99.7218,VALID,0.0169808,VALID,19.0521,VALID,231,VALID,0,
1999-10-11, 00:38:00,VALID,0,VALID,99.7612,VALID,0,VALID,19.0595,VALID,234,VALID,0,
1999-10-11, 00:39:00,VALID,0,VALID,99.7904,VALID,-0.0169808,VALID,19.0561,VALID,235,VALID,0,
1999-10-11, 00:40:00,VALID,0,VALID,99.8222,VALID,0,VALID,19.0662,VALID,235,VALID,0,
1999-10-11, 00:41:00,VALID,0,VALID,99.8667,VALID,-0.0169808,VALID,19.0824,VALID,238,VALID,0,
1999-10-11, 00:42:00,VALID,0,VALID,99.882,VALID,0,VALID,19.1023,VALID,237,VALID,0,
1999-10-11, 00:43:00,VALID,0,VALID,99.8934,VALID,0,VALID,19.108,VALID,237,VALID,0,
1999-10-11, 00:44:00,VALID,0,VALID,99.8947,VALID,-0.0169808,VALID,19.1175,VALID,237,VALID,0,
1999-10-11, 00:45:00,VALID,0,VALID,99.9379,VALID,0,VALID,19.1406,VALID,248,VALID,0,
1999-10-11, 00:46:00,VALID,0,VALID,99.9354,VALID,-0.0169808,VALID,19.16,VALID,230,VALID,0,
1999-10-11, 00:47:00,VALID,0,VALID,99.9418,VALID,-0.0339617,VALID,19.1794,VALID,216,VALID,0,
1999-10-11, 00:48:01,VALID,0,VALID,99.9557,VALID,-0.0339617,VALID,19.1986,VALID,215,VALID,0,
1999-10-11, 00:49:00,VALID,0,VALID,99.9494,VALID,0,VALID,19.2153,VALID,215,VALID,0,
1999-10-11, 00:50:00,VALID,0,VALID,99.957,VALID,-0.0339617,VALID,19.2016,VALID,204,VALID,0,
1999-10-11, 00:51:00,VALID,0,VALID,99.9809,VALID,-0.0169808,VALID,19.2317,VALID,207,VALID,0,
1999-10-11, 00:52:00,VALID,0,VALID,99.9901,VALID,-0.0169808,VALID,19.2575,VALID,207,VALID,0,
1999-10-11, 00:53:00,VALID,0,VALID,99.9784,VALID,0,VALID,19.2536,VALID,207,VALID,0,
1999-10-11, 00:54:00,VALID,0,VALID,99.9911,VALID,0,VALID,19.2871,VALID,206,VALID,0,
1999-10-11, 00:55:00,VALID,0,VALID,99.9583,VALID,-0.0169808,VALID,19.2471,VALID,206,VALID,0,
1999-10-11, 00:56:00,VALID,0,VALID,99.8922,VALID,0,VALID,19.1854,VALID,196,VALID,0,
1999-10-11, 00:57:00,VALID,0,VALID,99.8311,VALID,0,VALID,19.1272,VALID,189,VALID,0,
1999-10-11, 00:58:00,VALID,0,VALID,99.7968,VALID,0,VALID,19.1051,VALID,188,VALID,0,
1999-10-11, 00:59:01,VALID,0,VALID,99.7803,VALID,0,VALID,19.0757,VALID,188,VALID,0,
1999-10-11, 01:00:00,VALID,0,VALID,99.7726,VALID,0,VALID,19.0595,VALID,188,VALID,0,
1999-10-11, 01:01:00,VALID,0,VALID,99.7345,VALID,0,VALID,19.0341,VALID,187,VALID,0,
1999-10-11, 01:02:00,VALID,0,VALID,99.7485,VALID,0,VALID,19.0339,VALID,179,VALID,0,
1999-10-11, 01:03:00,VALID,0,VALID,99.8451,VALID,-0.0169808,VALID,19.0762,VALID,171,VALID,0,
1999-10-11, 01:04:00,VALID,0,VALID,99.9087,VALID,0,VALID,19.1242,VALID,171,VALID,0,
1999-10-11, 01:05:00,VALID,0,VALID,99.9036,VALID,-0.0169808,VALID,19.1374,VALID,171,VALID,0,
1999-10-11, 01:06:00,VALID,0,VALID,99.8527,VALID,-0.0169808,VALID,19.1053,VALID,171,VALID,0,
1999-10-11, 01:07:00,VALID,0,VALID,99.8133,VALID,-0.0169808,VALID,19.0854,VALID,171,VALID,0,
1999-10-11, 01:08:00,VALID,0,VALID,99.8922,VALID,-0.0169808,VALID,19.1312,VALID,153,VALID,0,
1999-10-11, 01:09:00,VALID,0,VALID,99.9278,VALID,0,VALID,19.1667,VALID,130,VALID,0,
1999-10-11, 01:10:00,VALID,0,VALID,99.9519,VALID,-0.0169808,VALID,19.1958,VALID,118,VALID,0,
1999-10-11, 01:11:00,VALID,0,VALID,99.9176,VALID,0,VALID,19.1951,VALID,117,VALID,0,
1999-10-11, 01:12:00,VALID,0,VALID,99.8464,VALID,0.0169808,VALID,19.1469,VALID,117,VALID,0,
1999-10-11, 01:13:00,VALID,0,VALID,99.7637,VALID,0.0169808,VALID,19.0954,VALID,115,VALID,0,
1999-10-11, 01:14:00,VALID,0,VALID,99.6798,VALID,0,VALID,19.0247,VALID,113,VALID,0,
1999-10-11, 01:15:00,VALID,0,VALID,99.7319,VALID,0,VALID,19.0371,VALID,113,VALID,0,
1999-10-11, 01:16:00,VALID,0,VALID,99.8273,VALID,0,VALID,19.0824,VALID,110,VALID,0,
1999-10-11, 01:17:00,VALID,0,VALID,99.8706,VALID,0,VALID,19.1145,VALID,109,VALID,0,
1999-10-11, 01:18:00,VALID,0,VALID,99.8922,VALID,-0.0169808,VALID,19.1409,VALID,109,VALID,0,
1999-10-11, 01:19:00,VALID,0,VALID,99.8998,VALID,-0.0169808,VALID,19.1511,VALID,109,VALID,0,
1999-10-11, 01:20:00,VALID,0,VALID,99.9087,VALID,-0.0509425,VALID,19.1503,VALID,109,VALID,0,
1999-10-11, 01:21:00,VALID,0,VALID,99.9036,VALID,-0.0169808,VALID,19.16,VALID,109,VALID,0,
1999-10-11, 01:22:00,VALID,0,VALID,99.8833,VALID,-0.0169808,VALID,19.1342,VALID,109,VALID,0,
1999-10-11, 01:23:00,VALID,0,VALID,99.9049,VALID,0,VALID,19.1374,VALID,109,VALID,0,
1999-10-11, 01:24:00,VALID,0,VALID,99.9062,VALID,-0.0169808,VALID,19.157,VALID,109,VALID,0,
1999-10-11, 01:25:00,VALID,0,VALID,99.8858,VALID,-0.0339617,VALID,19.1409,VALID,109,VALID,0,
1999-10-11, 01:26:00,VALID,0,VALID,99.8833,VALID,-0.0509425,VALID,19.1279,VALID,109,VALID,0,
1999-10-11, 01:27:00,VALID,0,VALID,99.8769,VALID,-0.0169808,VALID,19.1282,VALID,109,VALID,0,
1999-10-11, 01:28:00,VALID,0,VALID,99.8845,VALID,-0.0339617,VALID,19.1349,VALID,109,VALID,0,
1999-10-11, 01:29:00,VALID,0,VALID,99.8973,VALID,-0.0509425,VALID,19.1312,VALID,109,VALID,0,
1999-10-11, 01:30:00,VALID,0,VALID,99.9011,VALID,-0.0339617,VALID,19.1376,VALID,109,VALID,0,
1999-10-11, 01:31:00,VALID,0,VALID,99.8807,VALID,-0.0339617,VALID,19.108,VALID,115,VALID,0,
1999-10-11, 01:32:00,VALID,0,VALID,99.8756,VALID,-0.0339617,VALID,19.1016,VALID,120,VALID,0,
1999-10-11, 01:33:00,VALID,0,VALID,99.896,VALID,-0.0339617,VALID,19.1088,VALID,121,VALID,0,
1999-10-11, 01:34:00,VALID,0,VALID,99.9036,VALID,-0.0679233,VALID,19.1021,VALID,121,VALID,0,
1999-10-11, 01:35:00,VALID,0,VALID,99.868,VALID,-0.0509425,VALID,19.0764,VALID,121,VALID,0,
1999-10-11, 01:36:00,VALID,0,VALID,99.8706,VALID,-0.0169808,VALID,19.0565,VALID,121,VALID,0,
1999-10-11, 01:37:00,VALID,0,VALID,99.9176,VALID,-0.0679233,VALID,19.0727,VALID,69,VALID,0,
1999-10-11, 01:38:00,VALID,0,VALID,99.9809,VALID,-0.101885,VALID,19.1473,VALID,63,VALID,0,
1999-10-11, 01:39:00,VALID,0,VALID,100,VALID,-0.0339617,VALID,19.1695,VALID,95,VALID,0,
1999-10-11, 01:40:00,VALID,0,VALID,99.9748,VALID,-0.0169808,VALID,19.1501,VALID,107,VALID,0,
1999-10-11, 01:41:00,VALID,0,VALID,99.9138,VALID,0,VALID,19.1085,VALID,99,VALID,0,
1999-10-11, 01:42:00,VALID,0,VALID,99.924,VALID,0,VALID,19.0951,VALID,98,VALID,0,
1999-10-11, 01:43:00,VALID,0,VALID,99.9392,VALID,-0.0509425,VALID,19.1085,VALID,98,VALID,0,
1999-10-11, 01:44:00,VALID,0,VALID,99.9519,VALID,-0.0169808,VALID,19.1177,VALID,98,VALID,0,
1999-10-11, 01:45:00,VALID,0,VALID,99.9367,VALID,-0.0509425,VALID,19.1152,VALID,98,VALID,0,
1999-10-11, 01:46:00,VALID,0,VALID,99.9481,VALID,-0.0169808,VALID,19.1043,VALID,98,VALID,0,
1999-10-11, 01:47:00,VALID,0,VALID,99.9418,VALID,-0.0339617,VALID,19.1212,VALID,106,VALID,0,
1999-10-11, 01:48:00,VALID,0,VALID,99.9151,VALID,-0.0339617,VALID,19.1016,VALID,107,VALID,0,
1999-10-11, 01:49:00,VALID,0,VALID,99.9049,VALID,-0.0339617,VALID,19.0856,VALID,160,VALID,0,
1999-10-11, 01:50:00,VALID,0,VALID,99.929,VALID,-0.0339617,VALID,19.0794,VALID,165,VALID,0,
1999-10-11, 01:51:00,VALID,0,VALID,99.9303,VALID,0,VALID,19.0827,VALID,165,VALID,0,
1999-10-11, 01:52:00,VALID,0,VALID,99.9481,VALID,-0.0169808,VALID,19.0787,VALID,204,VALID,0,
1999-10-11, 01:53:00,VALID,0,VALID,99.9443,VALID,0,VALID,19.0725,VALID,255,VALID,0,
1999-10-11, 01:54:00,VALID,0,VALID,99.9468,VALID,-0.0169808,VALID,19.063,VALID,255,VALID,0,
1999-10-11, 01:55:00,VALID,0,VALID,99.9685,VALID,0,VALID,19.0725,VALID,272,VALID,0,
1999-10-11, 01:56:00,VALID,0,VALID,99.9977,VALID,0,VALID,19.1118,VALID,290,VALID,0,
1999-10-11, 01:57:00,VALID,0,VALID,100,VALID,0,VALID,19.1143,VALID,352,VALID,0,
1999-10-11, 01:58:00,VALID,0,VALID,100,VALID,-0.0169808,VALID,19.1374,VALID,89,VALID,0,
1999-10-11, 01:59:00,VALID,0,VALID,99.998,VALID,-0.0509425,VALID,19.1182,VALID,79,VALID,0,
1999-10-11, 02:00:00,VALID,0,VALID,99.998,VALID,-0.0169808,VALID,19.121,VALID,49,VALID,0,
1999-10-11, 02:01:00,VALID,0,VALID,100,VALID,-0.0169808,VALID,19.1503,VALID,49,VALID,0,
1999-10-11, 02:02:00,VALID,0,VALID,100,VALID,-0.0169808,VALID,19.176,VALID,49,VALID,0,
1999-10-11, 02:03:00,VALID,0,VALID,100,VALID,0.0169808,VALID,19.2053,VALID,49,VALID,0,
1999-10-11, 02:04:00,VALID,0,VALID,100,VALID,-0.0169808,VALID,19.2215,VALID,49,VALID,0,
1999-10-11, 02:05:00,VALID,0,VALID,100,VALID,-0.0169808,VALID,19.2314,VALID,49,VALID,0,
1999-10-11, 02:06:00,VALID,0,VALID,100,VALID,-0.0339617,VALID,19.2414,VALID,49,VALID,0,
1999-10-11, 02:07:00,VALID,0,VALID,100,VALID,-0.0169808,VALID,19.2309,VALID,49,VALID,0,
1999-10-11, 02:08:00,VALID,0,VALID,100,VALID,0,VALID,19.2434,VALID,49,VALID,0,
1999-10-11, 02:09:00,VALID,0,VALID,100,VALID,0,VALID,19.2533,VALID,49,VALID,0,
1999-10-11, 02:10:00,VALID,0,VALID,100,VALID,0,VALID,19.2727,VALID,49,VALID,0,
1999-10-11, 02:11:00,VALID,0,VALID,100,VALID,0,VALID,19.2727,VALID,49,VALID,0,
1999-10-11, 02:12:00,VALID,0,VALID,100,VALID,0,VALID,19.2792,VALID,73,VALID,0,
1999-10-11, 02:13:00,VALID,0,VALID,100,VALID,0,VALID,19.2991,VALID,113,VALID,0,
1999-10-11, 02:14:00,VALID,0,VALID,100,VALID,0,VALID,19.322,VALID,118,VALID,0,
1999-10-11, 02:15:00,VALID,0,VALID,100,VALID,0,VALID,19.3215,VALID,122,VALID,0,
1999-10-11, 02:16:00,VALID,0,VALID,100,VALID,-0.0339617,VALID,19.315,VALID,122,VALID,0,
1999-10-11, 02:17:00,VALID,0,VALID,100,VALID,-0.0169808,VALID,19.3118,VALID,122,VALID,0,
1999-10-11, 02:18:00,VALID,0,VALID,100,VALID,0,VALID,19.3215,VALID,125,VALID,0,
1999-10-11, 02:19:00,VALID,0,VALID,100,VALID,-0.0339617,VALID,19.3183,VALID,134,VALID,0,
1999-10-11, 02:20:00,VALID,0,VALID,100,VALID,-0.0679233,VALID,19.3185,VALID,138,VALID,0,
1999-10-11, 02:21:00,VALID,0,VALID,100,VALID,-0.0339617,VALID,19.3282,VALID,134,VALID,0,
1999-10-11, 02:22:00,VALID,0,VALID,100,VALID,-0.0339617,VALID,19.2924,VALID,122,VALID,0,
1999-10-11, 02:23:00,VALID,0,VALID,100,VALID,-0.0169808,VALID,19.2792,VALID,116,VALID,0,
1999-10-11, 02:24:00,VALID,0,VALID,100,VALID,-0.0339617,VALID,19.2984,VALID,91,VALID,0,
1999-10-11, 02:25:00,VALID,0,VALID,100,VALID,-0.0169808,VALID,19.3148,VALID,94,VALID,0,
1999-10-11, 02:26:00,VALID,0,VALID,100,VALID,0,VALID,19.3145,VALID,94,VALID,0,
1999-10-11, 02:27:00,VALID,0,VALID,100,VALID,-0.0169808,VALID,19.318,VALID,94,VALID,0,
1999-10-11, 02:28:00,VALID,0,VALID,100,VALID,0.0169808,VALID,19.3335,VALID,94,VALID,0,
1999-10-11, 02:29:00,VALID,0,VALID,100,VALID,0.0169808,VALID,19.323,VALID,94,VALID,0,
1999-10-11, 02:30:00,VALID,0,VALID,100,VALID,0.0679233,VALID,19.3529,VALID,94,VALID,0,
1999-10-11, 02:31:00,VALID,0,VALID,100,VALID,0.0679233,VALID,19.3621,VALID,94,VALID,0,
1999-10-11, 02:32:00,VALID,0,VALID,100,VALID,0.0169808,VALID,19.3394,VALID,94,VALID,0,
1999-10-11, 02:33:00,VALID,0,VALID,100,VALID,0.0339617,VALID,19.3238,VALID,187,VALID,0,
1999-10-11, 02:34:00,VALID,0,VALID,100,VALID,0.0849042,VALID,19.3103,VALID,217,VALID,0,
1999-10-11, 02:35:00,VALID,0,VALID,100,VALID,0.0339617,VALID,19.3106,VALID,217,VALID,0,
1999-10-11, 02:36:00,VALID,0,VALID,100,VALID,0.0339617,VALID,19.3078,VALID,217,VALID,0,
1999-10-11, 02:37:00,VALID,0,VALID,99.999,VALID,0.0509425,VALID,19.2909,VALID,217,VALID,0,
1999-10-11, 02:38:00,VALID,0,VALID,99.999,VALID,0.0169808,VALID,19.2877,VALID,216,VALID,0,
1999-10-11, 02:39:00,VALID,0,VALID,99.999,VALID,0.0679233,VALID,19.2917,VALID,201,VALID,0,
1999-10-11, 02:40:00,VALID,0,VALID,100,VALID,0.0679233,VALID,19.2884,VALID,196,VALID,0,
1999-10-11, 02:41:00,VALID,0,VALID,100,VALID,0.0169808,VALID,19.2683,VALID,194,VALID,0,
1999-10-11, 02:42:00,VALID,0,VALID,100,VALID,0,VALID,19.2882,VALID,194,VALID,0,
1999-10-11, 02:43:00,VALID,0,VALID,100,VALID,-0.0849042,VALID,19.2697,VALID,194,VALID,0,
1999-10-11, 02:44:00,VALID,0,VALID,100,VALID,-0.0679233,VALID,19.2857,VALID,192,VALID,0,
1999-10-11, 02:45:00,VALID,0,VALID,100,VALID,-0.0339617,VALID,19.2732,VALID,186,VALID,0,
1999-10-11, 02:46:00,VALID,0,VALID,100,VALID,-0.0849042,VALID,19.2824,VALID,169,VALID,0,
1999-10-11, 02:47:00,VALID,0,VALID,100,VALID,-0.0849042,VALID,19.3088,VALID,169,VALID,0,
1999-10-11, 02:48:00,VALID,0,VALID,100,VALID,-0.0679233,VALID,19.3088,VALID,309,VALID,0,
1999-10-11, 02:49:00,VALID,0,VALID,100,VALID,-0.0679233,VALID,19.3123,VALID,301,VALID,0,
1999-10-11, 02:50:00,VALID,0,VALID,100,VALID,-0.0679233,VALID,19.3118,VALID,286,VALID,0,
1999-10-11, 02:51:00,VALID,0,VALID,100,VALID,-0.0339617,VALID,19.3086,VALID,286,VALID,0,
1999-10-11, 02:52:00,VALID,0,VALID,100,VALID,-0.0679233,VALID,19.3215,VALID,286,VALID,0,
1999-10-11, 02:53:00,VALID,0,VALID,100,VALID,-0.0339617,VALID,19.3317,VALID,289,VALID,0,
1999-10-11, 02:54:00,VALID,0,VALID,100,VALID,-0.0509425,VALID,19.3506,VALID,303,VALID,0,
1999-10-11, 02:55:00,VALID,0,VALID,100,VALID,-0.0339617,VALID,19.3409,VALID,303,VALID,0,
1999-10-11, 02:56:00,VALID,0,VALID,100,VALID,-0.0509425,VALID,19.3474,VALID,305,VALID,0,
1999-10-11, 02:57:00,VALID,0,VALID,100,VALID,-0.0509425,VALID,19.3678,VALID,305,VALID,0,
1999-10-11, 02:58:00,VALID,0,VALID,100,VALID,-0.101885,VALID,19.3802,VALID,100,VALID,0,
1999-10-11, 02:59:01,VALID,0,VALID,100,VALID,-0.0679233,VALID,19.3832,VALID,100,VALID,0,
1999-10-11, 03:00:00,VALID,0,VALID,100,VALID,-0.0679233,VALID,19.3829,VALID,100,VALID,0,
1999-10-11, 03:01:00,VALID,0,VALID,100,VALID,-0.0849042,VALID,19.4058,VALID,100,VALID,0,
1999-10-11, 03:02:00,VALID,0,VALID,100,VALID,-0.0849042,VALID,19.3994,VALID,100,VALID,0,
1999-10-11, 03:03:00,VALID,0,VALID,100,VALID,-0.0679233,VALID,19.3996,VALID,100,VALID,0,
1999-10-11, 03:04:00,VALID,0,VALID,100,VALID,-0.0679233,VALID,19.4026,VALID,100,VALID,0,
1999-10-11, 03:05:00,VALID,0,VALID,100,VALID,-0.101885,VALID,19.3964,VALID,100,VALID,0.0140625,
1999-10-11, 03:06:00,VALID,0,VALID,99.999,VALID,-0.0679233,VALID,19.3931,VALID,60,VALID,0.38534,
1999-10-11, 03:07:00,VALID,0,VALID,99.9906,VALID,-0.0679233,VALID,19.3869,VALID,43,VALID,0.186655,
1999-10-11, 03:08:00,VALID,0,VALID,99.998,VALID,-0.0509425,VALID,19.3927,VALID,43,VALID,0,
1999-10-11, 03:09:00,VALID,0,VALID,99.986,VALID,-0.0679233,VALID,19.4026,VALID,43,VALID,0,
1999-10-11, 03:10:01,VALID,0,VALID,99.9634,VALID,-0.0849042,VALID,19.3961,VALID,64,VALID,0,
1999-10-11, 03:11:00,VALID,0,VALID,99.9748,VALID,-0.0679233,VALID,19.3959,VALID,91,VALID,0,
1999-10-11, 03:12:00,VALID,0,VALID,99.9799,VALID,-0.0509425,VALID,19.4088,VALID,90,VALID,0,
1999-10-11, 03:13:00,VALID,0,VALID,99.9583,VALID,-0.0339617,VALID,19.4021,VALID,85,VALID,0,
1999-10-11, 03:14:00,VALID,0,VALID,99.9481,VALID,-0.0849042,VALID,19.3862,VALID,60,VALID,0,
1999-10-11, 03:15:00,VALID,0,VALID,99.9379,VALID,-0.0509425,VALID,19.3931,VALID,76,VALID,0,
1999-10-11, 03:16:00,VALID,0,VALID,99.9685,VALID,-0.0849042,VALID,19.3964,VALID,99,VALID,0,
1999-10-11, 03:17:00,VALID,0,VALID,99.9735,VALID,-0.0339617,VALID,19.4026,VALID,98,VALID,0.420759,
1999-10-11, 03:18:00,VALID,0,VALID,99.9761,VALID,-0.0339617,VALID,19.4091,VALID,87,VALID,0.547564,
1999-10-11, 03:19:00,VALID,0,VALID,99.9507,VALID,-0.0849042,VALID,19.3927,VALID,76,VALID,0.726563,
1999-10-11, 03:20:00,VALID,0,VALID,99.9507,VALID,-0.0679233,VALID,19.3894,VALID,92,VALID,0.766741,
1999-10-11, 03:21:01,VALID,0,VALID,99.9519,VALID,-0.0849042,VALID,19.3829,VALID,102,VALID,0.922768,
1999-10-11, 03:22:00,VALID,0,VALID,99.9379,VALID,-0.0509425,VALID,19.37,VALID,97,VALID,0.954044,
1999-10-11, 03:23:00,VALID,0,VALID,99.9214,VALID,-0.0679233,VALID,19.3606,VALID,97,VALID,1.04561,
1999-10-11, 03:24:00,VALID,0,VALID,99.9201,VALID,-0.101885,VALID,19.3538,VALID,89,VALID,0.802009,
1999-10-11, 03:25:00,VALID,0,VALID,99.9519,VALID,-0.101885,VALID,19.3638,VALID,98,VALID,0.482812,
1999-10-11, 03:26:00,VALID,0,VALID,99.9647,VALID,-0.0509425,VALID,19.3765,VALID,107,VALID,0.606847,
1999-10-11, 03:27:00,VALID,0,VALID,99.9494,VALID,-0.101885,VALID,19.374,VALID,90,VALID,0.86212,
1999-10-11, 03:28:00,VALID,0,VALID,99.9659,VALID,0,VALID,19.3663,VALID,91,VALID,1.08772,
1999-10-11, 03:29:00,VALID,0,VALID,99.9682,VALID,0,VALID,19.37,VALID,86,VALID,1.10446,
1999-10-11, 03:30:00,VALID,0,VALID,99.9837,VALID,0,VALID,19.376,VALID,87,VALID,0.899586,
1999-10-11, 03:31:00,VALID,0,VALID,99.9697,VALID,0,VALID,19.3601,VALID,92,VALID,1.54455,
1999-10-11, 03:32:01,VALID,0,VALID,99.9596,VALID,0,VALID,19.3407,VALID,77,VALID,1.27031,
1999-10-11, 03:33:00,VALID,0,VALID,99.9723,VALID,0,VALID,19.3369,VALID,95,VALID,1.53661,
1999-10-11, 03:34:00,VALID,0,VALID,99.9847,VALID,0,VALID,19.3374,VALID,78,VALID,1.41567,
1999-10-11, 03:35:00,VALID,0,VALID,99.998,VALID,0.0169808,VALID,19.3305,VALID,79,VALID,1.24599,
1999-10-11, 03:36:00,VALID,0,VALID,100,VALID,0,VALID,19.3307,VALID,81,VALID,1.00781,
1999-10-11, 03:37:00,VALID,0,VALID,100,VALID,0,VALID,19.3409,VALID,95,VALID,1.46585,
1999-10-11, 03:38:00,VALID,0,VALID,100,VALID,-0.0169808,VALID,19.3372,VALID,91,VALID,1.10892,
1999-10-11, 03:39:00,VALID,0,VALID,100,VALID,-0.0169808,VALID,19.3436,VALID,74,VALID,0.95228,
1999-10-11, 03:40:00,VALID,0,VALID,100,VALID,-0.0169808,VALID,19.331,VALID,59,VALID,1.13683,
1999-10-11, 03:41:00,VALID,0,VALID,100,VALID,-0.0339617,VALID,19.3116,VALID,76,VALID,0.709375,
1999-10-11, 03:42:00,VALID,0,VALID,100,VALID,-0.0339617,VALID,19.3118,VALID,80,VALID,0.772518,
1999-10-11, 03:43:01,VALID,0,VALID,100,VALID,0.0679233,VALID,19.3101,VALID,78,VALID,0.61761,
1999-10-11, 03:44:00,VALID,0,VALID,100,VALID,0.101885,VALID,19.2964,VALID,81,VALID,0.976339,
1999-10-11, 03:45:00,VALID,0,VALID,100,VALID,0.101885,VALID,19.3036,VALID,94,VALID,1.20603,
1999-10-11, 03:46:00,VALID,0,VALID,100,VALID,0.118866,VALID,19.3191,VALID,92,VALID,0.982537,
1999-10-11, 03:47:00,VALID,0,VALID,100,VALID,0.101885,VALID,19.3422,VALID,93,VALID,0.545186,
1999-10-11, 03:48:00,VALID,0,VALID,100,VALID,0.101885,VALID,19.339,VALID,84,VALID,0.679241,
1999-10-11, 03:49:00,VALID,0,VALID,100,VALID,0.0679233,VALID,19.3322,VALID,94,VALID,0.512277,
1999-10-11, 03:50:00,VALID,0,VALID,100,VALID,0.0509425,VALID,19.3422,VALID,78,VALID,0.460248,
1999-10-11, 03:51:00,VALID,0,VALID,99.9837,VALID,0.118866,VALID,19.3457,VALID,88,VALID,0.362331,
1999-10-11, 03:52:00,VALID,0,VALID,99.9685,VALID,0.101885,VALID,19.3327,VALID,95,VALID,0.313393,
1999-10-11, 03:53:00,VALID,0,VALID,99.9672,VALID,0.101885,VALID,19.3521,VALID,90,VALID,0.508482,
1999-10-11, 03:54:01,VALID,0,VALID,99.929,VALID,0.0849042,VALID,19.3457,VALID,61,VALID,0.567785,
1999-10-11, 03:55:00,VALID,0,VALID,99.9049,VALID,0.0849042,VALID,19.3357,VALID,69,VALID,0.347128,
1999-10-11, 03:56:00,VALID,0,VALID,99.8782,VALID,0.0679233,VALID,19.3293,VALID,77,VALID,0.0316964,
1999-10-11, 03:57:00,VALID,0,VALID,99.84,VALID,0.0849042,VALID,19.3364,VALID,86,VALID,0,
1999-10-11, 03:58:00,VALID,0,VALID,99.8044,VALID,0,VALID,19.3372,VALID,86,VALID,0.295496,
1999-10-11, 03:59:00,VALID,0,VALID,99.7408,VALID,-0.0169808,VALID,19.3474,VALID,93,VALID,0.915329,
1999-10-11, 04:00:00,VALID,0,VALID,99.7167,VALID,-0.0339617,VALID,19.3601,VALID,86,VALID,0.931696,
1999-10-11, 04:01:00,VALID,0,VALID,99.6684,VALID,-0.0339617,VALID,19.37,VALID,81,VALID,0.811161,
1999-10-11, 04:02:00,VALID,0,VALID,99.5666,VALID,-0.0169808,VALID,19.3534,VALID,78,VALID,0.730239,
1999-10-11, 04:03:00,VALID,0,VALID,99.4624,VALID,0,VALID,19.3631,VALID,87,VALID,0.666807,
1999-10-11, 04:04:00,VALID,0,VALID,99.4026,VALID,-0.0169808,VALID,19.3606,VALID,87,VALID,0.953795,
1999-10-11, 04:05:00,VALID,0,VALID,99.3123,VALID,0,VALID,19.3471,VALID,82,VALID,0.808259,
1999-10-11, 04:06:00,VALID,0,VALID,99.2398,VALID,-0.0169808,VALID,19.3698,VALID,85,VALID,0.756893,
1999-10-11, 04:07:00,VALID,0,VALID,99.1623,VALID,0,VALID,19.3695,VALID,96,VALID,0.858108,
1999-10-11, 04:08:00,VALID,0,VALID,99.0898,VALID,0,VALID,19.3859,VALID,104,VALID,0.627679,
1999-10-11, 04:09:00,VALID,0,VALID,99.0122,VALID,0,VALID,19.3996,VALID,99,VALID,0.893304,
1999-10-11, 04:10:00,VALID,0,VALID,98.9639,VALID,0,VALID,19.4019,VALID,91,VALID,0.736673,
1999-10-11, 04:11:00,VALID,0,VALID,98.8584,VALID,0.0339617,VALID,19.3755,VALID,86,VALID,1.19341,
1999-10-11, 04:12:00,VALID,0,VALID,98.7795,VALID,-0.0169808,VALID,19.3723,VALID,92,VALID,1.06317,
1999-10-11, 04:13:00,VALID,0,VALID,98.7299,VALID,0,VALID,19.3792,VALID,90,VALID,1.23817,
1999-10-11, 04:14:00,VALID,0,VALID,98.6981,VALID,-0.0169808,VALID,19.3765,VALID,88,VALID,1.08755,
1999-10-11, 04:15:00,VALID,0,VALID,98.6117,VALID,0,VALID,19.3665,VALID,81,VALID,1.40351,
1999-10-11, 04:16:00,VALID,0,VALID,98.5392,VALID,0,VALID,19.3693,VALID,83,VALID,0.899107,
1999-10-11, 04:17:00,VALID,0,VALID,98.4769,VALID,0,VALID,19.3795,VALID,57,VALID,0.759152,
1999-10-11, 04:18:00,VALID,0,VALID,98.3866,VALID,-0.0169808,VALID,19.3829,VALID,55,VALID,0.439338,
1999-10-11, 04:19:00,VALID,0,VALID,98.3192,VALID,-0.0169808,VALID,19.3854,VALID,73,VALID,0.860853,
1999-10-11, 04:20:00,VALID,0,VALID,98.2683,VALID,0,VALID,19.3725,VALID,92,VALID,0.817411,
1999-10-11, 04:21:00,VALID,0,VALID,98.2569,VALID,0,VALID,19.3795,VALID,90,VALID,0.462946,